Weather History for KPHL - March, 2013

Change the Weather History Date:

Tuesday, March 5, 2013

  Actual Average Record
Temperature  
Mean Temperature 40 °F 40 °F  
Max Temperature 49 °F 49 °F 79 °F (1976)
Min Temperature 31 °F 31 °F 5 °F (1872)
Degree Days  
Heating Degree Days 25 25  
Month to date heating degree days 136 127  
Since 1 July heating degree days 3343 3609  
Cooling Degree Days 0 0  
Month to date cooling degree days 0 0  
Year to date cooling degree days 0 0  
Moisture  
Dew Point 22 °F    
Average Humidity 53    
Maximum Humidity 70    
Minimum Humidity 36    
Precipitation  
Precipitation 0.00 in 0.10 in 1.40 in (1920)
Month to date precipitation T 0.52  
Year to date precipitation 5.46 6.20  
Snow  
Snow 0.00 in 0.10 in 8.80 in (1981)
Month to date snowfall T 0.8  
Since 1 July snowfall 7.0 19.8  
Snow Depth 0.00 in    
Sea Level Pressure  
Sea Level Pressure 30.01 in    
Wind  
Wind Speed 7 mph (NE)    
Max Wind Speed 16 mph    
Max Gust Speed 20 mph    
Visibility 10 miles    
Events      
T = Trace of Precipitation, MM = Missing Value Source: NWS Daily Summary

Daily Weather History Graph

Daily Weather History Graph

Search for Another Location

Airport or City:

Trip Planner

Search our weather history database for the weather conditions in past years. The results will help you decide how hot, cold, wet, or windy it might be!

Date:

Astronomy

Mar. 05, 2013 Rise Set
Actual Time 6:27 AM EST 5:57 PM EST
Civil Twilight 6:00 AM EST 6:24 PM EST
Nautical Twilight 5:29 AM EST 6:55 PM EST
Astronomical Twilight 4:58 AM EST 7:27 PM EST
Moon 1:37 AM EST (3/5) 11:34 AM EST (3/5)
Length of Visible Light 12h 23m
Length of Day
11h 29m
Last Quarter, 41% of the Moon is Illuminated
Mar 5
Last Quarter
Mar 11
New
Mar 19
First Quarter
Mar 27
Full
Apr 3
Last Quarter

Hourly Weather History & Observations

Time (EST) Temp. Windchill Dew Point Humidity Pressure Visibility Wind Dir Wind Speed Gust Speed Precip Events Conditions
12:54 AM 33.1 °F 25.5 °F 19.0 °F 56% 29.99 in 10.0 mi NW 9.2 mph - N/A   Scattered Clouds
1:54 AM 33.1 °F 24.9 °F 19.0 °F 56% 29.99 in 10.0 mi NW 10.4 mph - N/A   Scattered Clouds
2:54 AM 33.1 °F 26.1 °F 19.9 °F 59% 30.00 in 10.0 mi WNW 8.1 mph - N/A   Mostly Cloudy
3:54 AM 33.1 °F 26.9 °F 19.9 °F 59% 30.01 in 10.0 mi WNW 6.9 mph - N/A   Mostly Cloudy
4:54 AM 33.1 °F 26.1 °F 19.9 °F 59% 30.03 in 10.0 mi NW 8.1 mph - N/A   Scattered Clouds
5:54 AM 32.0 °F 25.6 °F 19.9 °F 61% 30.04 in 10.0 mi NW 6.9 mph - N/A   Partly Cloudy
6:54 AM 33.1 °F 26.9 °F 19.9 °F 59% 30.05 in 10.0 mi NW 6.9 mph - N/A   Partly Cloudy
7:54 AM 34.0 °F 26.0 °F 21.0 °F 59% 30.05 in 10.0 mi NNW 10.4 mph - N/A   Partly Cloudy
8:54 AM 36.0 °F 29.0 °F 21.0 °F 55% 30.06 in 10.0 mi North 9.2 mph - N/A   Partly Cloudy
9:54 AM 39.0 °F 32.3 °F 21.0 °F 49% 30.06 in 10.0 mi North 10.4 mph - N/A   Partly Cloudy
10:54 AM 42.1 °F 39.2 °F 21.9 °F 45% 30.05 in 10.0 mi ENE 4.6 mph - N/A   Partly Cloudy
11:54 AM 44.1 °F - 21.9 °F 42% 30.04 in 10.0 mi Calm Calm - N/A   Partly Cloudy
12:54 PM 44.1 °F 42.5 °F 21.9 °F 42% 30.01 in 10.0 mi Variable 3.5 mph - N/A   Scattered Clouds
1:54 PM 45.0 °F - 21.9 °F 40% 30.01 in 10.0 mi Calm Calm - N/A   Mostly Cloudy
2:54 PM 46.9 °F - 23.0 °F 39% 29.99 in 10.0 mi SE 4.6 mph - N/A   Scattered Clouds
3:54 PM 48.9 °F - 23.0 °F 36% 29.96 in 10.0 mi East 5.8 mph - N/A   Clear
4:54 PM 48.0 °F - 24.1 °F 39% 29.97 in 10.0 mi East 6.9 mph - N/A   Partly Cloudy
5:54 PM 44.1 °F 40.8 °F 24.1 °F 45% 29.99 in 10.0 mi East 5.8 mph - N/A   Scattered Clouds
6:54 PM 42.1 °F 36.1 °F 26.1 °F 53% 30.00 in 10.0 mi SE 10.4 mph - N/A   Scattered Clouds
7:54 PM 39.0 °F 32.8 °F 27.0 °F 62% 30.00 in 10.0 mi SE 9.2 mph - N/A   Partly Cloudy
8:54 PM 37.9 °F 33.5 °F 26.1 °F 62% 30.00 in 10.0 mi SSE 5.8 mph - N/A   Scattered Clouds
9:54 PM 36.0 °F 32.1 °F 26.1 °F 67% 29.99 in 10.0 mi ESE 4.6 mph - N/A   Scattered Clouds
10:54 PM 35.1 °F 30.1 °F 27.0 °F 72% 29.96 in 10.0 mi East 5.8 mph - N/A   Mostly Cloudy
11:54 PM 35.1 °F 29.3 °F 28.0 °F 76% 29.94 in 10.0 mi East 6.9 mph - N/A   Overcast